Flag for Russia Weather past 2 weeks in Chelyabinsk, Russia

Now
59 °F

Scattered clouds.


Feels Like: 57 °F
Forecast: 56 / 72 °F
Wind: 10 mph from Northwest

Location: Chelyabinsk-Balandino

Current Time: Jul 28, 2015 at 11:47:23 PM

Latest Report: Jul 28, 2015 at 11:00 PM


Visibility: N/A

Pressure: 29.74 "Hg

Humidity: 94%

Dew point: 57 °F

Location of ChelyabinskLocation

Historic Weather in Chelyabinsk — Graph

°F

Chelyabinsk temperature yesterday

Maximum temperature yesterday: 64 °F (at 4:30 PM)
Minimum temperature yesterday: 48 °F (at 2:00 AM)
Average temperature yesterday: 58 °F

Past Weeks' High & Low Weather Summary

 TemperatureHumidityPressure
High79 °F (Jul 15, 5:00 PM)100% (Jul 16, 11:30 PM)29.95 "Hg (Jul 16, 11:30 PM)
Low48 °F (Jul 21, 3:00 AM)29% (Jul 15, 1:30 PM)29.50 "Hg (Jul 13, 10:00 PM)
Average63 °F70%29.72 "Hg
* Reported Jul 13 10:00 PM — Jul 28 10:30 PM, Chelyabinsk, Weather by CustomWeather, © 2015

Note: Actual official high and low records may vary slightly from our data, if they occured in-between our weather recording intervals... More about our weather records

Advertising

Chelyabinsk weather history for previous 24 hours

 ConditionsComfort  
Time TempWeatherWind HumidityBarometerVisibility
10:30 PM
Tue, Jul 28
59 °FScattered clouds.8 mph94%29.74 "HgN/A
10:00 PM59 °FScattered clouds.8 mph94%29.74 "HgN/A
9:00 PM61 °FSprinkles. Scattered clouds.8 mph88%29.74 "HgN/A
8:30 PM61 °FScattered clouds.10 mph83%29.74 "HgN/A
8:00 PM63 °FScattered clouds.10 mph77%29.74 "HgN/A
7:30 PM63 °FSprinkles. Scattered clouds.8 mph77%29.74 "HgN/A
7:00 PM64 °FScattered clouds.13 mph68%29.71 "HgN/A
6:30 PM66 °FScattered clouds.13 mph68%29.71 "HgN/A
6:00 PM66 °FScattered clouds.10 mph73%29.71 "HgN/A
5:30 PM63 °FScattered clouds.8 mph83%29.74 "HgN/A
5:00 PM61 °FScattered clouds.8 mph88%29.74 "HgN/A
4:30 PM66 °FSprinkles. Scattered clouds.15 mph56%29.71 "HgN/A
4:00 PM66 °FScattered clouds.10 mph60%29.71 "HgN/A
3:30 PM68 °FScattered clouds.15 mph53%29.71 "HgN/A
3:00 PM66 °FScattered clouds.13 mph56%29.71 "HgN/A
2:30 PM68 °FScattered clouds.13 mph56%29.71 "HgN/A
2:00 PM66 °FScattered clouds.15 mph60%29.71 "HgN/A
1:30 PM64 °FScattered clouds.15 mph60%29.71 "HgN/A
1:00 PM64 °FPartly sunny.15 mph64%29.71 "HgN/A
12:30 PM63 °FPartly sunny.13 mph68%29.71 "HgN/A
12:00 PM63 °FPartly sunny.15 mph68%29.71 "HgN/A
11:30 AM61 °FPartly sunny.17 mph72%29.71 "HgN/A
11:00 AM61 °FPartly sunny.15 mph72%29.71 "HgN/A
10:30 AM61 °FPartly sunny.15 mph72%29.71 "HgN/A
10:00 AM59 °FPartly sunny.15 mph77%29.71 "HgN/A
9:30 AM59 °FBroken clouds.15 mph77%29.71 "HgN/A
9:00 AM59 °FBroken clouds.15 mph72%29.71 "HgN/A
8:30 AM57 °FPartly sunny.13 mph77%29.71 "HgN/A
8:00 AM57 °FPartly sunny.15 mph77%29.71 "HgN/A
7:30 AM55 °FPartly sunny.10 mph82%29.71 "HgN/A
7:00 AM55 °FPartly sunny.13 mph82%29.71 "HgN/A
6:30 AM55 °FPassing clouds.13 mph82%29.71 "HgN/A
6:00 AM55 °FPassing clouds.13 mph82%29.71 "HgN/A
5:30 AM55 °FPassing clouds.13 mph82%29.71 "HgN/A
5:00 AM55 °FPassing clouds.13 mph82%29.71 "HgN/A
4:30 AM55 °FPassing clouds.15 mph82%29.71 "HgN/A
4:00 AM55 °FPassing clouds.13 mph82%29.71 "HgN/A
3:30 AM55 °FPassing clouds.15 mph82%29.68 "HgN/A
3:00 AM55 °FPassing clouds.13 mph77%29.68 "HgN/A
2:30 AM55 °FPassing clouds.10 mph82%29.71 "HgN/A
2:00 AM55 °FPassing clouds.13 mph77%29.71 "HgN/A
1:30 AM55 °FPassing clouds.15 mph77%29.71 "HgN/A
1:00 AM55 °FPassing clouds.13 mph77%29.71 "HgN/A
12:30 AM55 °FPassing clouds.10 mph77%29.71 "HgN/A
12:00 AM55 °FPassing clouds.13 mph72%29.71 "HgN/A
11:30 PM
Mon, Jul 27
55 °FPassing clouds.15 mph72%29.71 "HgN/A
11:00 PM55 °FPartly sunny.10 mph72%29.74 "HgN/A
Weather by CustomWeather, © 2015

See weather overviewHow to use our weather pages